Change the Weather History Date:

Sunday, July 7, 2013

  Actual Average Record
Temperature  
Mean Temperature 81 °F -  
Max Temperature 89 °F 83 °F 95 °F (2007)
Min Temperature 73 °F 61 °F 46 °F (1997)
Cooling Degree Days 16    
Growing Degree Days 31 (Base 50)    
Moisture  
Dew Point 65 °F    
Average Humidity 59    
Maximum Humidity 73    
Minimum Humidity 43    
Precipitation  
Precipitation 0.00 in - - ()
Sea Level Pressure  
Sea Level Pressure 29.88 in    
Wind  
Wind Speed 3 mph (South)    
Max Wind Speed 12 mph    
Max Gust Speed -    
Visibility 10 miles    
Events      
Averages and records for this station are not official NWS values.
T = Trace of Precipitation, MM = Missing Value Source: NWS Daily Summary

Daily Weather History Graph

Daily Weather History Graph

Search for Another Location

Airport or City:

Trip Planner

Search our weather history database for the weather conditions in past years. The results will help you decide how hot, cold, wet, or windy it might be!

Date:

Astronomy

Jul. 07, 2013 Rise Set
Actual Time 5:31 AM CDT 8:51 PM CDT
Civil Twilight 4:55 AM CDT 9:27 PM CDT
Nautical Twilight 4:09 AM CDT 10:13 PM CDT
Astronomical Twilight 3:10 AM CDT 11:11 PM CDT
Moon 5:10 AM CDT (7/7) 8:12 PM CDT (7/7)
Length of Visible Light 16h 31m
Length of Day
15h 20m
Waning Crescent, 0% of the Moon is Illuminated
Jul 7
Waning Crescent
Jul 8
New
Jul 15
First Quarter
Jul 22
Full
Jul 29
Last Quarter

Hourly Weather History & Observations

Time (CDT) Temp. Heat Index Dew Point Humidity Pressure Visibility Wind Dir Wind Speed Gust Speed Precip Events Conditions
12:15 AM 78.8 °F - 62.6 °F 57% 29.91 in 10.0 mi SSE 5.8 mph - N/A   Clear
12:35 AM 78.8 °F - 62.6 °F 57% 29.91 in 10.0 mi South 3.5 mph - N/A   Clear
12:55 AM 78.8 °F - 62.6 °F 57% 29.90 in 10.0 mi SSW 4.6 mph - N/A   Clear
1:15 AM 77.0 °F - 62.6 °F 61% 29.90 in 10.0 mi Calm Calm - N/A   Clear
1:35 AM 77.0 °F - 60.8 °F 57% 29.90 in 10.0 mi Calm Calm - N/A   Clear
1:55 AM 77.0 °F - 60.8 °F 57% 29.90 in 10.0 mi Calm Calm - N/A   Clear
2:15 AM 77.0 °F - 60.8 °F 57% 29.90 in 10.0 mi SE 3.5 mph - N/A   Clear
2:35 AM 77.0 °F - 62.6 °F 61% 29.90 in 10.0 mi Calm Calm - N/A   Clear
2:55 AM 77.0 °F - 62.6 °F 61% 29.89 in 10.0 mi Calm Calm - N/A   Clear
3:15 AM 77.0 °F - 62.6 °F 61% 29.89 in 10.0 mi Calm Calm - N/A   Clear
3:35 AM 77.0 °F - 62.6 °F 61% 29.89 in 10.0 mi SSW 4.6 mph - N/A   Clear
3:55 AM 77.0 °F - 62.6 °F 61% 29.89 in 10.0 mi South 3.5 mph - N/A   Clear
4:15 AM 75.2 °F - 62.6 °F 65% 29.89 in 10.0 mi Calm Calm - N/A   Clear
4:35 AM 75.2 °F - 62.6 °F 65% 29.89 in 10.0 mi SW 4.6 mph - N/A   Clear
4:55 AM 73.4 °F - 62.6 °F 69% 29.89 in 7.0 mi Calm Calm - N/A   Clear
5:15 AM 73.4 °F - 62.6 °F 69% 29.89 in 10.0 mi Calm Calm - N/A   Clear
5:35 AM 73.4 °F - 62.6 °F 69% 29.89 in 10.0 mi SE 3.5 mph - N/A   Clear
5:55 AM 73.4 °F - 62.6 °F 69% 29.89 in 10.0 mi Calm Calm - N/A   Clear
6:15 AM 73.4 °F - 62.6 °F 69% 29.89 in 10.0 mi Calm Calm - N/A   Clear
6:35 AM 73.4 °F - 64.4 °F 73% 29.89 in 10.0 mi Calm Calm - N/A   Clear
6:55 AM 73.4 °F - 64.4 °F 73% 29.89 in 10.0 mi Calm Calm - N/A   Clear
7:15 AM 73.4 °F - 64.4 °F 73% 29.90 in 10.0 mi Calm Calm - N/A   Clear
7:21 AM 73.4 °F - 64.4 °F 73% 29.90 in 10.0 mi Calm Calm - N/A   Clear
7:55 AM 77.0 °F - 64.4 °F 65% 29.90 in 10.0 mi Calm Calm - N/A   Clear
8:16 AM 77.0 °F - 66.2 °F 69% 29.91 in 10.0 mi SSW 3.5 mph - N/A   Clear
8:40 AM 77.0 °F - 66.2 °F 69% 29.91 in 10.0 mi Calm Calm - N/A   Clear
8:55 AM 77.0 °F - 64.4 °F 65% 29.92 in 10.0 mi Calm Calm - N/A   Clear
9:39 AM 77.0 °F - 66.2 °F 69% 29.91 in 10.0 mi Calm Calm - N/A   Clear
9:55 AM 78.8 °F - 66.2 °F 65% 29.91 in 10.0 mi SSE 4.6 mph - N/A   Clear
10:20 AM 78.8 °F - 66.2 °F 65% 29.90 in 10.0 mi SSE 3.5 mph - N/A   Clear
10:35 AM 80.6 °F 82.7 °F 66.2 °F 61% 29.89 in 10.0 mi SSE 3.5 mph - N/A   Clear
10:55 AM 82.4 °F 83.9 °F 64.4 °F 54% 29.89 in 10.0 mi WSW 5.8 mph - N/A   Clear
11:20 AM 82.4 °F 83.9 °F 64.4 °F 54% 29.89 in 10.0 mi SW 6.9 mph - N/A   Clear
11:40 AM 82.4 °F 83.9 °F 64.4 °F 54% 29.89 in 10.0 mi SW 5.8 mph - N/A   Clear
12:00 PM 84.2 °F 85.6 °F 64.4 °F 51% 29.89 in 10.0 mi SSW 5.8 mph - N/A   Clear
12:20 PM 84.2 °F 86.6 °F 66.2 °F 55% 29.89 in 10.0 mi SSW 4.6 mph - N/A   Clear
12:40 PM 87.8 °F 90.4 °F 66.2 °F 49% 29.89 in 10.0 mi WSW 6.9 mph - N/A   Clear
1:00 PM 87.8 °F 90.4 °F 66.2 °F 49% 29.89 in 10.0 mi SW 5.8 mph - N/A   Clear
1:20 PM 87.8 °F 90.4 °F 66.2 °F 49% 29.89 in 10.0 mi Calm Calm - N/A   Scattered Clouds
1:40 PM 89.6 °F 92.2 °F 66.2 °F 46% 29.89 in 10.0 mi WSW 6.9 mph - N/A   Scattered Clouds
2:00 PM 87.8 °F 90.4 °F 66.2 °F 49% 29.89 in 10.0 mi SW 4.6 mph - N/A   Scattered Clouds
2:20 PM 89.6 °F 93.4 °F 68.0 °F 49% 29.88 in 10.0 mi South 4.6 mph - N/A   Clear
2:40 PM 87.8 °F 91.4 °F 68.0 °F 52% 29.88 in 10.0 mi South 5.8 mph - N/A   Scattered Clouds
2:55 PM 87.8 °F 91.4 °F 68.0 °F 52% 29.88 in 10.0 mi South 5.8 mph - N/A   Scattered Clouds
3:15 PM 89.6 °F 93.4 °F 68.0 °F 49% 29.88 in 10.0 mi South 5.8 mph - N/A   Scattered Clouds
3:40 PM 87.8 °F 91.4 °F 68.0 °F 52% 29.87 in 10.0 mi South 3.5 mph - N/A   Scattered Clouds
4:00 PM 87.8 °F 91.4 °F 68.0 °F 52% 29.87 in 10.0 mi South 5.8 mph - N/A   Clear
4:20 PM 89.6 °F 93.4 °F 68.0 °F 49% 29.86 in 10.0 mi South 4.6 mph - N/A   Clear
4:40 PM 89.6 °F 93.4 °F 68.0 °F 49% 29.87 in 10.0 mi South 6.9 mph - N/A   Scattered Clouds
5:00 PM 89.6 °F 93.4 °F 68.0 °F 49% 29.86 in 10.0 mi South 3.5 mph - N/A   Scattered Clouds
5:20 PM 89.6 °F 91.1 °F 64.4 °F 43% 29.86 in 10.0 mi SSW 6.9 mph - N/A   Clear
5:40 PM 89.6 °F 92.2 °F 66.2 °F 46% 29.86 in 10.0 mi SSW 8.1 mph - N/A   Clear
6:00 PM 89.6 °F 93.4 °F 68.0 °F 49% 29.86 in 10.0 mi South 4.6 mph - N/A   Clear
6:20 PM 87.8 °F 90.4 °F 66.2 °F 49% 29.85 in 10.0 mi South 4.6 mph - N/A   Clear
6:40 PM 87.8 °F 91.4 °F 68.0 °F 52% 29.85 in 10.0 mi South 4.6 mph - N/A   Scattered Clouds
7:00 PM 86.0 °F 88.2 °F 66.2 °F 51% 29.85 in 10.0 mi South 3.5 mph - N/A   Mostly Cloudy
7:20 PM 84.2 °F 86.6 °F 66.2 °F 55% 29.84 in 10.0 mi SSE 6.9 mph - N/A   Scattered Clouds
7:40 PM 84.2 °F 86.6 °F 66.2 °F 55% 29.84 in 10.0 mi SSE 6.9 mph - N/A   Clear
8:00 PM 82.4 °F 84.6 °F 66.2 °F 58% 29.86 in 10.0 mi SSE 4.6 mph - N/A   Scattered Clouds
8:20 PM 82.4 °F 85.4 °F 68.0 °F 62% 29.86 in 10.0 mi SSE 5.8 mph - N/A   Scattered Clouds
8:40 PM 82.4 °F 85.4 °F 68.0 °F 62% 29.86 in 10.0 mi SE 4.6 mph - N/A   Mostly Cloudy
9:00 PM 82.4 °F 85.4 °F 68.0 °F 62% 29.86 in 10.0 mi SSE 5.8 mph - N/A   Scattered Clouds
9:20 PM 82.4 °F 85.4 °F 68.0 °F 62% 29.86 in 10.0 mi SSE 3.5 mph - N/A   Mostly Cloudy
9:40 PM 80.6 °F 83.2 °F 68.0 °F 65% 29.86 in 10.0 mi SSE 3.5 mph - N/A   Mostly Cloudy
9:55 PM 80.6 °F 83.2 °F 68.0 °F 65% 29.86 in 10.0 mi Calm Calm - N/A   Scattered Clouds
10:15 PM 80.6 °F 83.2 °F 68.0 °F 65% 29.86 in 10.0 mi SSE 4.6 mph - N/A   Mostly Cloudy
10:40 PM 82.4 °F 85.4 °F 68.0 °F 62% 29.86 in 10.0 mi South 3.5 mph - N/A   Mostly Cloudy
10:55 PM 82.4 °F 85.4 °F 68.0 °F 62% 29.86 in 10.0 mi Calm Calm - N/A   Mostly Cloudy
11:18 PM 82.4 °F 85.4 °F 68.0 °F 62% 29.86 in 10.0 mi SSW 6.9 mph - N/A   Scattered Clouds
11:35 PM 82.4 °F 84.6 °F 66.2 °F 58% 29.85 in 10.0 mi SSW 9.2 mph - N/A   Scattered Clouds
11:55 PM 82.4 °F 84.6 °F 66.2 °F 58% 29.85 in 10.0 mi SSW 11.5 mph - N/A   Clear